Air Quality Table

TIMESTAMP NO2 SO2 O3 PM10 TEMP HUM AIRPRES WS WD NO
2021-08-02 17:00 12.71 ug/m3 1.43 ug/m3 99.19 ug/m3 67.44 ug/m3 34.15 C 48.68 % 1,005.47 mbar 2.24 m/s 157.94 Deg 2.29 ug/m3
2021-08-02 09:00 41.64 ug/m3 1.6 ug/m3 46.26 ug/m3 65.88 ug/m3 30.27 C 53.41 % 1,004.64 mbar 1.28 m/s 241.43 Deg 11.69 ug/m3
2021-08-02 01:00 18.86 ug/m3 1.51 ug/m3 64.99 ug/m3 87.13 ug/m3 31.04 C 61.77 % 1,004.51 mbar 1.96 m/s 168.8 Deg 1.16 ug/m3
2021-08-01 17:00 5.17 ug/m3 1.58 ug/m3 96.11 ug/m3 50.12 ug/m3 34.81 C 35.64 % 1,004.20 mbar 3.1 m/s 192.88 Deg 0.88 ug/m3
2021-08-01 09:00 24.65 ug/m3 1.54 ug/m3 52.37 ug/m3 63.42 ug/m3 29.9 C 58.66 % 1,003.64 mbar 1.66 m/s 221.79 Deg 3.14 ug/m3
2021-08-01 01:00 16.42 ug/m3 1.35 ug/m3 74.41 ug/m3 65.44 ug/m3 29.91 C 70.89 % 1,003.86 mbar 1.25 m/s 163.92 Deg 0.98 ug/m3
2021-07-31 17:00 6.51 ug/m3 1.38 ug/m3 110.76 ug/m3 64.17 ug/m3 33.11 C 57.92 % 1,003.51 mbar 2.31 m/s 102.53 Deg 0.99 ug/m3
2021-07-31 09:00 13.01 ug/m3 1.46 ug/m3 78.05 ug/m3 44.16 ug/m3 29.04 C 68.28 % 1,003.74 mbar 2.25 m/s 270.04 Deg 1.68 ug/m3
2021-07-31 01:00 7.31 ug/m3 1.78 ug/m3 64.79 ug/m3 62.42 ug/m3 28.93 C 69.44 % 1,004.83 mbar 2.02 m/s 247.16 Deg 0.74 ug/m3
2021-07-30 17:00 11.79 ug/m3 2.23 ug/m3 86.48 ug/m3 59.97 ug/m3 35.21 C 29.79 % 1,005.99 mbar 2.79 m/s 231.93 Deg 2.06 ug/m3
2021-07-30 09:00 37.29 ug/m3 2.1 ug/m3 54.08 ug/m3 45.06 ug/m3 29.71 C 35.24 % 1,006.33 mbar 1.17 m/s 289.02 Deg 5.96 ug/m3
2021-07-30 01:00 24.96 ug/m3 1.97 ug/m3 69.04 ug/m3 49.37 ug/m3 31.4 C 34.77 % 1,006.67 mbar 1.1 m/s 270.92 Deg 1.24 ug/m3
2021-07-29 17:00 20.22 ug/m3 2.02 ug/m3 96.56 ug/m3 43.14 ug/m3 34.15 C 31.13 % 1,007.02 mbar 3.42 m/s 201.09 Deg 3.79 ug/m3
2021-07-29 09:00 39.82 ug/m3 2.47 ug/m3 54.25 ug/m3 33.82 ug/m3 29.42 C 34.92 % 1,006.79 mbar 1.91 m/s 302.63 Deg 8.01 ug/m3
2021-07-29 01:00 23.27 ug/m3 1.75 ug/m3 78.96 ug/m3 36.52 ug/m3 29.44 C 45.93 % 1,007.43 mbar 2.49 m/s 257.1 Deg 1.06 ug/m3
2021-07-28 17:00 12.25 ug/m3 2.13 ug/m3 108.4 ug/m3 24.01 ug/m3 32.59 C 30.56 % 1,008.03 mbar 2.6 m/s 103.85 Deg 1.76 ug/m3
2021-07-28 09:00 35.23 ug/m3 1.82 ug/m3 61.16 ug/m3 24.22 ug/m3 27.58 C 46.43 % 1,008.21 mbar 1.66 m/s 289.65 Deg 5.02 ug/m3
2021-07-28 01:00 17.49 ug/m3 1.43 ug/m3 82.4 ug/m3 23.71 ug/m3 27.53 C 67.97 % 1,009.24 mbar 1.14 m/s 183.7 Deg 0.79 ug/m3
2021-07-27 17:00 4.38 ug/m3 N/A 108.29 ug/m3 11.02 ug/m3 29.32 C 71.21 % 1,010.25 mbar 2.58 m/s 121.31 Deg 0.77 ug/m3
2021-07-27 09:00 12.73 ug/m3 N/A 72.07 ug/m3 28.29 ug/m3 25.85 C 93.03 % 1,009.91 mbar 1.96 m/s 164.51 Deg 1.52 ug/m3
2021-07-27 01:00 2.99 ug/m3 1.27 ug/m3 73.13 ug/m3 29.98 ug/m3 26.35 C 91.79 % 1,009.08 mbar 3.53 m/s 155.57 Deg 0.35 ug/m3
2021-07-26 17:00 5.87 ug/m3 N/A 80.3 ug/m3 10.96 ug/m3 28.03 C 76.92 % 1,009.00 mbar 4.32 m/s 163.32 Deg 1.45 ug/m3
2021-07-26 09:00 4.77 ug/m3 N/A 70.38 ug/m3 23.67 ug/m3 25.75 C 90.86 % 1,007.57 mbar 2.75 m/s 157.99 Deg 0.63 ug/m3
2021-07-26 01:00 18.13 ug/m3 1.49 ug/m3 55.86 ug/m3 40.65 ug/m3 26.58 C 82.56 % 1,007.06 mbar 2.2 m/s 170.13 Deg 1.16 ug/m3
2021-07-25 17:00 6.19 ug/m3 1.73 ug/m3 103.58 ug/m3 22.58 ug/m3 31.01 C 41.24 % 1,007.37 mbar 2.68 m/s 146.18 Deg 0.98 ug/m3
2021-07-25 09:00 15.33 ug/m3 1.6 ug/m3 67.57 ug/m3 25.57 ug/m3 26.22 C 64.9 % 1,006.66 mbar 0.9 m/s 262.68 Deg 1.72 ug/m3
2021-07-25 01:00 13.07 ug/m3 1.64 ug/m3 82.02 ug/m3 32.07 ug/m3 27.79 C 52.04 % 1,007.09 mbar 1.36 m/s 240.6 Deg 0.62 ug/m3
2021-07-24 17:00 8.67 ug/m3 1.56 ug/m3 104.46 ug/m3 25.35 ug/m3 29.92 C 57.66 % 1,007.02 mbar 3.1 m/s 111.95 Deg 1.6 ug/m3
2021-07-24 09:00 15.94 ug/m3 1.56 ug/m3 79.12 ug/m3 27.71 ug/m3 26.26 C 66.28 % 1,006.88 mbar 1.6 m/s 275.06 Deg 1.99 ug/m3
2021-07-24 01:00 13 ug/m3 1.5 ug/m3 88.01 ug/m3 31.54 ug/m3 26.79 C 68.62 % 1,007.38 mbar 1.66 m/s 150.84 Deg 0.74 ug/m3
2021-07-23 17:00 5.82 ug/m3 1.55 ug/m3 110.76 ug/m3 10.7 ug/m3 29.39 C 55.17 % 1,007.64 mbar 3.35 m/s 156.51 Deg 0.91 ug/m3
2021-07-23 09:00 9.75 ug/m3 1.45 ug/m3 77.83 ug/m3 45.76 ug/m3 25.98 C 79.96 % 1,007.48 mbar 2.11 m/s 129.63 Deg 1.25 ug/m3
2021-07-23 01:00 9.7 ug/m3 1.61 ug/m3 93.82 ug/m3 25.14 ug/m3 28.09 C 52.86 % 1,007.92 mbar 2.27 m/s 272.33 Deg 0.61 ug/m3
2021-07-22 17:00 9.92 ug/m3 1.43 ug/m3 105.62 ug/m3 17.33 ug/m3 30 C 59.89 % 1,009.10 mbar 2.84 m/s 119.11 Deg 1.67 ug/m3
2021-07-22 09:00 26.57 ug/m3 1.4 ug/m3 55.6 ug/m3 24.74 ug/m3 25.52 C 79.66 % 1,009.13 mbar 1.5 m/s 263.48 Deg 3.75 ug/m3
2021-07-22 01:00 6.58 ug/m3 1.43 ug/m3 87.12 ug/m3 37.19 ug/m3 26.05 C 84.6 % 1,009.24 mbar 2.08 m/s 167.71 Deg 0.65 ug/m3
2021-07-21 17:00 5.47 ug/m3 1.38 ug/m3 103.21 ug/m3 9.08 ug/m3 28.28 C 61.91 % 1,008.98 mbar 3.61 m/s 173.6 Deg 0.97 ug/m3
2021-07-21 09:00 18.42 ug/m3 1.3 ug/m3 75.25 ug/m3 34.27 ug/m3 25.07 C 87.41 % 1,008.31 mbar 1.32 m/s 202.12 Deg 1.99 ug/m3
2021-07-21 01:00 5.94 ug/m3 1.33 ug/m3 100.88 ug/m3 34.92 ug/m3 25.19 C 86.62 % 1,007.42 mbar 1.83 m/s 113.02 Deg 0.67 ug/m3
2021-07-20 17:00 3.07 ug/m3 1.23 ug/m3 113.02 ug/m3 20.69 ug/m3 26.28 C 80.86 % 1,005.58 mbar 2.94 m/s 108.93 Deg 0.59 ug/m3
2021-07-20 09:00 10.37 ug/m3 1.2 ug/m3 78.78 ug/m3 34.93 ug/m3 24.21 C 90.56 % 1,003.91 mbar 1.7 m/s 250.9 Deg 1.29 ug/m3
2021-07-20 01:00 6.74 ug/m3 1.34 ug/m3 96.5 ug/m3 39.77 ug/m3 24.91 C 83.12 % 1,003.27 mbar 1.84 m/s 288.7 Deg 0.53 ug/m3
2021-07-19 17:00 8.3 ug/m3 N/A 107.32 ug/m3 18.68 ug/m3 26.88 C 68.11 % 1,001.76 mbar 3.77 m/s 180.72 Deg 1.59 ug/m3
2021-07-19 09:00 13.45 ug/m3 1.16 ug/m3 82.81 ug/m3 16.7 ug/m3 23.97 C 82.33 % 1,000.46 mbar 3.03 m/s 220.24 Deg 1.71 ug/m3
2021-07-19 01:00 6.33 ug/m3 1.29 ug/m3 99.06 ug/m3 45.17 ug/m3 24.51 C 84.12 % 999.09 mbar 4.3 m/s 294.49 Deg 0.6 ug/m3
2021-07-18 17:00 3.96 ug/m3 1.38 ug/m3 106.98 ug/m3 38.42 ug/m3 26.79 C 69.63 % 998.89 mbar 5.18 m/s 302.31 Deg 0.8 ug/m3
2021-07-18 09:00 4.34 ug/m3 1.31 ug/m3 90.52 ug/m3 25.13 ug/m3 23.7 C 83.08 % 1,000.10 mbar 3.66 m/s 304.32 Deg 0.58 ug/m3
2021-07-18 01:00 4.83 ug/m3 1.3 ug/m3 90.98 ug/m3 55.58 ug/m3 24.22 C 78.3 % 1,001.50 mbar 4.44 m/s 301.18 Deg 0.62 ug/m3
2021-07-17 17:00 5.79 ug/m3 1.46 ug/m3 92.29 ug/m3 49.67 ug/m3 26.66 C 63.97 % 1,003.13 mbar 4.78 m/s 300.36 Deg 1.36 ug/m3
2021-07-17 09:00 6.34 ug/m3 1.28 ug/m3 79.81 ug/m3 27.82 ug/m3 23.98 C 81.37 % 1,004.02 mbar 3.57 m/s 304.05 Deg 0.97 ug/m3
2021-07-17 01:00 6.54 ug/m3 1.48 ug/m3 81.16 ug/m3 46.65 ug/m3 25.26 C 69.41 % 1,004.95 mbar 3.85 m/s 300.11 Deg 0.79 ug/m3
2021-07-16 17:00 12.26 ug/m3 N/A 83.17 ug/m3 15.25 ug/m3 29.19 C 53.42 % 1,005.66 mbar 3.57 m/s 223.63 Deg 3.4 ug/m3
2021-07-16 09:00 16.01 ug/m3 N/A 44.99 ug/m3 37.11 ug/m3 24.9 C 86.45 % 1,005.73 mbar 1.51 m/s 245.17 Deg 5.4 ug/m3
2021-07-16 01:00 12.92 ug/m3 N/A 65.87 ug/m3 22.3 ug/m3 26.03 C 67.48 % 1,006.76 mbar 2.36 m/s 291.89 Deg 1.61 ug/m3
2021-07-15 17:00 10.91 ug/m3 N/A 80.86 ug/m3 20.93 ug/m3 27.84 C 69.47 % 1,007.42 mbar 2.95 m/s 159.72 Deg 1.3 ug/m3
2021-07-15 09:00 8.6 ug/m3 N/A 60 ug/m3 42.79 ug/m3 25.42 C 88.07 % 1,006.92 mbar 1.79 m/s 105.57 Deg 1.8 ug/m3
2021-07-15 01:00 14.58 ug/m3 1.42 ug/m3 62.35 ug/m3 49.08 ug/m3 27.54 C 72.33 % 1,006.28 mbar 1.94 m/s 257.96 Deg 2.17 ug/m3
2021-07-14 17:00 10.8 ug/m3 1.41 ug/m3 87.58 ug/m3 39.16 ug/m3 29.3 C 71.81 % 1,006.23 mbar 3.09 m/s 151.01 Deg 1.41 ug/m3
2021-07-14 09:00 17.69 ug/m3 1.34 ug/m3 68.22 ug/m3 29.99 ug/m3 26.22 C 88.23 % 1,005.79 mbar 1.33 m/s 265.08 Deg 2.9 ug/m3
2021-07-14 01:00 10.76 ug/m3 1.3 ug/m3 0 ug/m3 40.18 ug/m3 26.74 C 86.39 % 1,005.25 mbar 2.37 m/s 198.32 Deg 1.41 ug/m3
2021-07-13 17:00 7.05 ug/m3 1.22 ug/m3 0 ug/m3 11.36 ug/m3 29.15 C 69.29 % 1,005.84 mbar 4.18 m/s 214.39 Deg 1.32 ug/m3
2021-07-13 09:00 9.27 ug/m3 1.08 ug/m3 0 ug/m3 37.44 ug/m3 25.77 C 96.52 % 1,006.14 mbar 2.28 m/s 199.57 Deg 2.63 ug/m3
2021-07-13 01:00 9 ug/m3 1.32 ug/m3 0 ug/m3 50.91 ug/m3 26.55 C 90.79 % 1,006.62 mbar 2.3 m/s 203.48 Deg 1.94 ug/m3
2021-07-12 17:00 11 ug/m3 1.39 ug/m3 0 ug/m3 14.12 ug/m3 28.13 C 78.86 % 1,007.00 mbar 4.01 m/s 170.89 Deg 1.57 ug/m3
2021-07-12 09:00 11.88 ug/m3 1.36 ug/m3 58.11 ug/m3 40.52 ug/m3 25.19 C 90.59 % 1,006.63 mbar 1.68 m/s 145.69 Deg 2.38 ug/m3
2021-07-12 01:00 16.9 ug/m3 1.56 ug/m3 65.24 ug/m3 37.84 ug/m3 26.51 C 76.23 % 1,006.61 mbar 1.66 m/s 223.42 Deg 2.05 ug/m3
2021-07-11 17:00 8.66 ug/m3 1.53 ug/m3 90.33 ug/m3 11.77 ug/m3 28.52 C 52.24 % 1,005.88 mbar 3.79 m/s 107.75 Deg 1.2 ug/m3
2021-07-11 09:00 9.98 ug/m3 1.34 ug/m3 60.5 ug/m3 24.46 ug/m3 25.29 C 84.25 % 1,004.53 mbar 2.5 m/s 107.24 Deg 2.08 ug/m3
2021-07-11 01:00 14.78 ug/m3 1.54 ug/m3 66.78 ug/m3 35.48 ug/m3 26.02 C 77.96 % 1,004.93 mbar 2.13 m/s 232.89 Deg 1.84 ug/m3
2021-07-10 17:00 13.51 ug/m3 1.6 ug/m3 89.1 ug/m3 15.69 ug/m3 29.94 C 58 % 1,005.96 mbar 3.32 m/s 152.33 Deg 1.54 ug/m3
2021-07-10 09:00 12.65 ug/m3 1.36 ug/m3 53.64 ug/m3 34.65 ug/m3 27 C 82.05 % 1,006.32 mbar 2.37 m/s 268.98 Deg 2.14 ug/m3
2021-07-10 01:00 12.9 ug/m3 1.64 ug/m3 68 ug/m3 60.2 ug/m3 28.41 C 73.09 % 1,007.53 mbar 2.63 m/s 295.57 Deg 1.6 ug/m3
2021-07-09 17:00 15.73 ug/m3 N/A 72.27 ug/m3 22.63 ug/m3 32.83 C 39.6 % 1,009.14 mbar 3.11 m/s 293.72 Deg 1.8 ug/m3
2021-07-09 09:00 N/A N/A 47.15 ug/m3 N/A 27.58 C 68.53 % 1,009.90 mbar 1.72 m/s 286.83 Deg N/A
2021-07-09 01:00 18.68 ug/m3 N/A 58.93 ug/m3 18.86 ug/m3 27.97 C 72.3 % 1,010.52 mbar 1.49 m/s 266.07 Deg 2.2 ug/m3
2021-07-08 17:00 30.01 ug/m3 1.7 ug/m3 59.19 ug/m3 34.73 ug/m3 30.47 C 61.77 % 1,010.52 mbar 2.66 m/s 150.95 Deg 3.98 ug/m3
2021-07-08 09:00 22.49 ug/m3 1.61 ug/m3 41.04 ug/m3 36.69 ug/m3 26.8 C 86.02 % 1,009.22 mbar 1.13 m/s 228.09 Deg 5.32 ug/m3
2021-07-08 01:00 10.86 ug/m3 1.72 ug/m3 72.54 ug/m3 37.81 ug/m3 27.61 C 71.86 % 1,008.46 mbar 1.82 m/s 223.11 Deg 1.74 ug/m3
2021-07-07 17:00 14.87 ug/m3 1.73 ug/m3 95.63 ug/m3 6.69 ug/m3 29.88 C 58.35 % 1,007.56 mbar 3.7 m/s 171.32 Deg 1.56 ug/m3
2021-07-07 09:00 13.91 ug/m3 1.53 ug/m3 72.52 ug/m3 34.57 ug/m3 25.85 C 85.71 % 1,006.43 mbar 1.29 m/s 112.77 Deg 2.26 ug/m3
2021-07-07 01:00 12.19 ug/m3 1.64 ug/m3 91.08 ug/m3 39.63 ug/m3 26.13 C 78.4 % 1,006.18 mbar 1.16 m/s 167.53 Deg 1.71 ug/m3
2021-07-06 17:00 15.06 ug/m3 1.69 ug/m3 91.41 ug/m3 14.94 ug/m3 28.75 C 58.3 % 1,006.04 mbar 2.73 m/s 78.29 Deg 1.94 ug/m3
2021-07-06 09:00 13.03 ug/m3 1.55 ug/m3 63.69 ug/m3 25.35 ug/m3 26.04 C 80.93 % 1,005.31 mbar 1.86 m/s 58.5 Deg 2.07 ug/m3
2021-07-06 01:00 12.68 ug/m3 1.64 ug/m3 74.34 ug/m3 44.43 ug/m3 27.19 C 75.81 % 1,004.46 mbar 3.56 m/s 120.91 Deg 1.54 ug/m3
2021-07-05 17:00 17.65 ug/m3 1.74 ug/m3 84 ug/m3 50.39 ug/m3 30.1 C 62.36 % 1,002.99 mbar 4.13 m/s 293.37 Deg 1.9 ug/m3
2021-07-05 09:00 16.86 ug/m3 1.75 ug/m3 68.56 ug/m3 22.37 ug/m3 27.05 C 75.24 % 1,004.09 mbar 2.61 m/s 284.57 Deg 1.95 ug/m3
2021-07-05 01:00 13.31 ug/m3 1.77 ug/m3 66.3 ug/m3 53.68 ug/m3 27.41 C 82.29 % 1,005.11 mbar 1.77 m/s 219.72 Deg 1.37 ug/m3
2021-07-04 17:00 10.34 ug/m3 1.99 ug/m3 106.98 ug/m3 6.1 ug/m3 32.43 C 37.59 % 1,006.16 mbar 2.55 m/s 213.73 Deg 1 ug/m3
2021-07-04 09:00 11.24 ug/m3 1.78 ug/m3 89.28 ug/m3 34.4 ug/m3 26.76 C 77.42 % 1,007.00 mbar 2.12 m/s 247.49 Deg 1.15 ug/m3
2021-07-04 01:00 14.21 ug/m3 1.83 ug/m3 110.87 ug/m3 48.11 ug/m3 26.81 C 74.44 % 1,007.31 mbar 1.79 m/s 156.64 Deg 1.01 ug/m3
2021-07-03 17:00 17.06 ug/m3 1.89 ug/m3 106.42 ug/m3 29.01 ug/m3 31.26 C 40.97 % 1,007.77 mbar 2.89 m/s 138.69 Deg 1.17 ug/m3
2021-07-03 09:00 28.96 ug/m3 1.81 ug/m3 55.55 ug/m3 34.51 ug/m3 27.73 C 57.95 % 1,007.27 mbar 1.46 m/s 249.83 Deg 3.35 ug/m3

It is to be noted that the data is provisional and subject to quality assurance procedures. For validated data kindly refer your request to contact.air@era.org.mt